Ile Art - Waala Airport


Codes: NWWC/BMY
Name: Ile Art - Waala Airport
City: Waala
Country: New Caledonia
Elevation: 306 ft.
Wikipedia:

Photos at Ile Art - Waala Airport


   Photos courtesy of SpottingLog. You can add your own sightings and photos by signing up for a free trial today.



No photos found.

Weather at Ile Art - Waala Airport


Time (UTC)DescriptionTempratureWindCloud coverageVisibilityPressureHumidity
16-Jun-2024 09:00Clear Sky22°C9 mph, W7%10000m1014hPa60%
16-Jun-2024 12:00Few Clouds22°C11 mph, W21%10000m1014hPa59%
16-Jun-2024 15:00Scattered Clouds22°C11 mph, W30%10000m1013hPa61%
16-Jun-2024 18:00Broken Clouds22°C11 mph, W68%10000m1012hPa63%
16-Jun-2024 21:00Broken Clouds22°C13 mph, W78%10000m1014hPa61%
17-Jun-2024 00:00Broken Clouds22°C11 mph, W72%10000m1013hPa58%
17-Jun-2024 03:00Clear Sky22°C11 mph, W0%10000m1011hPa60%
17-Jun-2024 06:00Clear Sky22°C13 mph, W8%10000m1011hPa64%
17-Jun-2024 09:00Light Rain22°C13 mph, W48%10000m1013hPa75%
17-Jun-2024 12:00Light Rain21°C11 mph, SW57%10000m1014hPa74%
17-Jun-2024 15:00Broken Clouds22°C11 mph, SW55%10000m1013hPa71%
17-Jun-2024 18:00Broken Clouds21°C13 mph, SW68%10000m1013hPa71%
17-Jun-2024 21:00Scattered Clouds22°C11 mph, SW46%10000m1015hPa63%
18-Jun-2024 00:00Scattered Clouds21°C11 mph, SW48%10000m1015hPa65%
18-Jun-2024 03:00Overcast Clouds21°C16 mph, SW96%10000m1013hPa65%
18-Jun-2024 06:00Overcast Clouds22°C13 mph, SW89%10000m1013hPa62%
18-Jun-2024 09:00Broken Clouds21°C13 mph, SW64%10000m1015hPa62%
18-Jun-2024 12:00Scattered Clouds21°C11 mph, SW40%10000m1015hPa60%
18-Jun-2024 15:00Few Clouds21°C13 mph, SW13%10000m1014hPa60%
18-Jun-2024 18:00Clear Sky21°C13 mph, SW10%10000m1014hPa59%
18-Jun-2024 21:00Clear Sky20°C11 mph, S5%10000m1016hPa59%
19-Jun-2024 00:00Few Clouds20°C11 mph, S12%10000m1016hPa61%
19-Jun-2024 03:00Clear Sky20°C13 mph, S6%10000m1014hPa60%
19-Jun-2024 06:00Clear Sky20°C16 mph, S3%10000m1014hPa61%
19-Jun-2024 09:00Clear Sky21°C18 mph, S0%10000m1015hPa62%
19-Jun-2024 12:00Clear Sky21°C16 mph, SE0%10000m1016hPa63%
19-Jun-2024 15:00Clear Sky21°C11 mph, E1%10000m1015hPa64%
19-Jun-2024 18:00Clear Sky21°C13 mph, SE3%10000m1015hPa65%
19-Jun-2024 21:00Broken Clouds21°C13 mph, SE55%10000m1017hPa72%
20-Jun-2024 00:00Light Rain21°C16 mph, SE77%10000m1016hPa71%
20-Jun-2024 03:00Light Rain22°C16 mph, SE59%10000m1015hPa66%
20-Jun-2024 06:00Broken Clouds22°C16 mph, SE68%10000m1015hPa65%
20-Jun-2024 09:00Overcast Clouds21°C16 mph, SE100%10000m1017hPa69%
20-Jun-2024 12:00Overcast Clouds22°C16 mph, SE100%10000m1017hPa64%
20-Jun-2024 15:00Overcast Clouds22°C16 mph, E100%10000m1016hPa62%
20-Jun-2024 18:00Broken Clouds22°C18 mph, SE68%10000m1016hPa69%
20-Jun-2024 21:00Light Rain22°C20 mph, SE91%10000m1018hPa65%
21-Jun-2024 00:00Broken Clouds22°C18 mph, SE66%10000m1018hPa67%
21-Jun-2024 03:00Light Rain22°C20 mph, E67%10000m1015hPa69%
21-Jun-2024 06:00Light Rain22°C20 mph, E48%10000m1016hPa68%